This is the latest recevied weather packets stored in our database for station/object AE5EW. If no packets are shown the sender has not sent any weather packets the latest 10 day(s).
| Time | Temp. | Humidity | Pressure | Rain* | Wind** | Luminosity | Snow |
|---|---|---|---|---|---|---|---|
| 1787705833 | 27.22° C | 87% | 1016.1 hPa | 0 mm | - | - | - |
| 1787705528 | 27.22° C | 87% | 1016.1 hPa | 0 mm | - | - | - |
| 1787705225 | 27.22° C | 87% | 1016.2 hPa | 0 mm | - | - | - |
| 1787704919 | 27.78° C | 85% | 1016.1 hPa | 0 mm | - | - | - |
| 1787704615 | 27.78° C | 85% | 1016.1 hPa | 0 mm | - | - | - |
| 1787704311 | 27.78° C | 85% | 1016.1 hPa | 0 mm | - | - | - |
| 1787704010 | 28.33° C | 85% | 1016 hPa | 0 mm | - | - | - |
| 1787703704 | 28.33° C | 83% | 1016 hPa | 0 mm | - | - | - |
| 1787703400 | 28.33° C | 84% | 1015.9 hPa | 0 mm | - | - | - |
| 1787703095 | 28.33° C | 84% | 1016.1 hPa | 0 mm | - | - | - |
| 1787702791 | 28.89° C | 84% | 1016 hPa | 0 mm | - | - | - |
| 1787702486 | 29.44° C | 83% | 1015.7 hPa | 0 mm | - | - | - |
| 1787702186 | 29.44° C | 76% | 1015.7 hPa | 0 mm | - | - | - |
| 1787701881 | 30° C | 79% | 1015.6 hPa | 0 mm | - | - | - |
| 1787701577 | 30.56° C | 79% | 1015.5 hPa | 0 mm | - | - | - |
| 1787701273 | 30.56° C | 80% | 1015.4 hPa | 0 mm | - | - | - |
| 1787700969 | 30° C | 80% | 1015.5 hPa | 0 mm | - | - | - |
| 1787700664 | 30.56° C | 79% | 1015.6 hPa | 0 mm | - | - | - |
| 1787700360 | 31.11° C | 78% | 1015.3 hPa | 0 mm | - | - | - |
| 1787700055 | 31.11° C | 76% | 1015.3 hPa | 0 mm | - | - | - |
| 1787699751 | 31.11° C | 74% | 1015.5 hPa | 0 mm | - | - | - |
| 1787699446 | 31.11° C | 75% | 1015.2 hPa | 0 mm | - | - | - |
| 1787699142 | 31.11° C | 73% | 1015.3 hPa | 0 mm | - | - | - |
| 1787698838 | 31.11° C | 73% | 1015.4 hPa | 0 mm | - | - | - |
| 1787698533 | 31.11° C | 72% | 1015.2 hPa | 0 mm | - | - | - |
* Rain latest hour (hover to see other rain measurements)
** Current wind speed in m/s (hover to see current wind gust speed)